DT_LEITURA;HR_LEITURA;MED-PressaoAtm[hPa];VAL-TempExt[oC];VAL-UmidExt[%UR];VAL-TempInt[oC];VAL-UmidInt[%UR];Dir-Vento[grau];Vel-Vento[m/s];Precipitação[mm/h]
16/08/2026;00:04:00;1020,6;;;19,1;85;25;5,1;0,0
16/08/2026;00:09:00;1020,6;;;19,1;85;26;5,6;0,2
16/08/2026;00:14:00;1020,5;;;19,1;85;25;5,8;0,0
16/08/2026;00:19:00;1020,5;;;19,1;85;27;5,6;0,0
16/08/2026;00:24:00;1020,6;;;19,1;85;25;5,5;0,0
16/08/2026;00:29:00;1020,5;;;19,1;85;27;5,7;0,0
16/08/2026;00:34:00;1020,5;;;19,1;85;25;5,5;0,0
16/08/2026;00:39:00;1020,6;;;19,1;85;23;5,1;0,0
16/08/2026;00:44:00;1020,7;;;19,1;85;24;5,2;0,2
16/08/2026;00:49:00;1020,7;;;19,1;85;24;5,3;0,0
16/08/2026;00:54:00;1020,6;;;19,1;85;23;5,4;0,0
16/08/2026;00:59:00;1020,4;;;19,1;85;24;5,5;0,0
16/08/2026;01:04:00;1020,4;;;19,1;85;26;5,7;0,0
16/08/2026;01:09:00;1020,4;;;19,1;85;27;6,0;0,2
16/08/2026;01:14:00;1020,3;;;19,1;85;24;6,3;0,0
16/08/2026;01:19:00;1020,2;;;19,2;85;27;6,1;0,0
16/08/2026;01:24:00;1020,0;;;19,2;85;26;6,5;0,2
16/08/2026;01:29:00;1020,1;;;19,2;85;25;6,1;0,0
16/08/2026;01:34:00;1020,3;;;19,2;85;24;6,0;0,0
16/08/2026;01:39:00;1020,3;;;19,2;85;27;6,1;0,0
16/08/2026;01:44:00;1020,2;;;19,2;85;25;6,4;0,0
16/08/2026;01:49:00;1020,0;;;19,2;85;25;6,3;0,0
16/08/2026;01:54:00;1019,9;;;19,2;85;26;6,8;0,0
16/08/2026;01:59:00;1019,8;;;19,2;85;24;6,4;0,0
16/08/2026;02:04:00;1019,8;;;19,2;85;24;6,7;0,0
16/08/2026;02:09:00;1019,8;;;19,2;85;23;6,4;0,0
16/08/2026;02:14:00;1019,8;;;19,2;85;24;6,2;0,0
16/08/2026;02:19:00;1019,8;;;19,2;85;26;6,7;0,0
16/08/2026;02:24:00;1019,7;;;19,2;85;24;6,1;0,0
16/08/2026;02:29:00;1019,7;;;19,2;85;25;6,0;0,0
16/08/2026;02:34:00;1019,8;;;19,2;85;23;5,8;0,0
16/08/2026;02:39:00;1019,7;;;19,2;85;25;6,0;0,0
16/08/2026;02:44:00;1019,5;;;19,2;85;24;5,9;0,0
16/08/2026;02:49:00;1019,6;;;19,2;85;25;6,3;0,2
16/08/2026;02:54:00;1019,6;;;19,2;85;25;6,3;0,0
16/08/2026;02:59:00;1019,6;;;19,2;85;25;6,1;0,0
16/08/2026;03:04:00;1019,4;;;19,2;85;25;6,1;0,0
16/08/2026;03:09:00;1019,4;;;19,2;85;24;6,5;0,0
16/08/2026;03:14:00;1019,3;;;19,2;85;23;6,1;0,0
16/08/2026;03:19:00;1019,2;;;19,2;85;25;6,6;0,0
16/08/2026;03:24:00;1019,0;;;19,2;85;25;7,0;0,0
16/08/2026;03:29:00;1018,9;;;19,2;85;24;6,7;0,0
16/08/2026;03:34:00;1019,1;;;19,2;85;25;7,1;0,0
16/08/2026;03:39:00;1019,1;;;19,2;85;25;6,8;0,0
16/08/2026;03:44:00;1019,1;;;19,2;85;26;7,0;0,0
16/08/2026;03:49:00;1019,0;;;19,3;85;27;7,3;0,0
16/08/2026;03:54:00;1018,8;;;19,3;85;25;7,7;0,2
16/08/2026;03:59:00;1018,7;;;19,3;85;25;7,3;0,0
16/08/2026;04:04:00;1018,7;;;19,3;85;25;7,9;0,0
16/08/2026;04:09:00;1018,6;;;19,3;85;25;7,8;0,0
16/08/2026;04:14:00;1018,6;;;19,3;85;27;7,9;0,0
16/08/2026;04:19:00;1018,7;;;19,3;85;28;7,5;0,0
16/08/2026;04:24:00;1018,5;;;19,3;85;27;7,6;0,0
16/08/2026;04:29:00;1018,5;;;19,3;85;27;7,8;0,0
16/08/2026;04:34:00;1018,4;;;19,3;85;26;7,7;0,0
16/08/2026;04:39:00;1018,3;;;19,3;85;27;7,9;0,0
16/08/2026;04:44:00;1018,3;;;19,3;85;26;8,0;0,0
16/08/2026;04:49:00;1018,3;;;19,4;85;28;8,2;0,0
16/08/2026;04:54:00;1018,4;;;19,4;85;27;8,2;0,0
16/08/2026;04:59:00;1018,4;;;19,4;85;27;8,2;0,0
16/08/2026;05:04:00;1018,4;;;19,4;86;27;7,8;0,0
16/08/2026;05:09:00;1018,5;;;19,4;86;27;8,2;0,0
16/08/2026;05:14:00;1018,5;;;19,4;86;28;8,2;0,0
16/08/2026;05:19:00;1018,7;;;19,4;86;27;7,5;0,0
16/08/2026;05:24:00;1018,6;;;19,4;86;30;7,9;0,0
16/08/2026;05:29:00;1018,6;;;19,4;86;27;8,1;0,0
16/08/2026;05:34:00;1018,8;;;19,4;86;28;7,5;0,0
16/08/2026;05:39:00;1018,7;;;19,5;86;26;8,1;0,0
16/08/2026;05:44:00;1018,6;;;19,5;86;26;8,2;0,0
16/08/2026;05:49:00;1018,6;;;19,5;86;26;8,3;0,0
16/08/2026;05:54:00;1018,5;;;19,5;86;26;8,3;0,2
16/08/2026;05:59:00;1018,6;;;19,5;86;26;8,2;0,0
16/08/2026;06:04:00;1018,7;;;19,5;86;26;8,3;0,0
16/08/2026;06:09:00;1018,7;;;19,5;86;27;8,3;0,0
16/08/2026;06:14:00;1018,7;;;19,5;86;27;8,6;0,0
16/08/2026;06:19:00;1018,8;;;19,5;86;27;9,1;0,0
16/08/2026;06:24:00;1018,8;;;19,5;86;28;9,2;0,0
16/08/2026;06:29:00;1018,7;;;19,5;86;26;8,8;0,0
16/08/2026;06:34:00;1018,6;;;19,5;86;28;9,7;0,0
16/08/2026;06:39:00;1018,6;;;19,5;86;29;9,1;0,0
16/08/2026;06:44:00;1018,6;;;19,5;86;27;8,8;0,0
16/08/2026;06:49:00;1018,6;;;19,5;86;26;9,1;0,0
16/08/2026;06:54:00;1018,7;;;19,6;86;28;9,1;0,0
16/08/2026;06:59:00;1018,7;;;19,6;86;29;8,3;0,0
16/08/2026;07:04:00;1018,8;;;19,6;86;28;8,5;0,0
16/08/2026;07:09:00;1018,6;;;19,6;86;28;8,3;0,0
16/08/2026;07:14:00;1018,7;;;19,6;86;29;8,8;0,0
16/08/2026;07:19:00;1018,7;;;19,6;86;29;8,9;0,0
16/08/2026;07:24:00;1018,7;;;19,7;86;28;8,7;0,0
16/08/2026;07:29:00;1018,8;;;19,7;86;29;9,2;0,0
16/08/2026;07:34:00;1018,8;;;19,7;86;30;8,6;0,0
16/08/2026;07:39:00;1019,0;;;19,7;86;29;8,7;0,0
16/08/2026;07:44:00;1019,0;;;19,7;86;29;9,0;0,0
16/08/2026;07:49:00;1019,0;;;19,8;86;27;9,1;0,0
16/08/2026;07:54:00;1019,1;;;19,8;86;27;8,1;0,0
16/08/2026;07:59:00;1019,0;;;19,8;86;31;8,2;0,0
16/08/2026;08:04:00;1019,0;;;19,8;86;27;8,7;0,0
16/08/2026;08:09:00;1019,0;;;19,8;86;29;8,8;0,0
16/08/2026;08:14:00;1019,0;;;19,8;86;28;8,1;0,0
16/08/2026;08:19:00;1019,1;;;19,8;86;28;8,0;0,0
16/08/2026;08:24:00;1019,0;;;19,8;86;27;8,1;0,0
16/08/2026;08:29:00;1018,9;;;19,8;86;27;8,5;0,0
16/08/2026;08:34:00;1018,9;;;19,8;86;27;8,9;0,0
16/08/2026;08:39:00;1019,0;;;19,8;86;27;8,6;0,0
16/08/2026;08:44:00;1019,3;;;19,8;86;27;8,4;0,0
16/08/2026;08:49:00;1019,3;;;19,8;86;27;8,8;0,0
16/08/2026;08:54:00;1019,3;;;19,8;87;27;8,7;0,0
16/08/2026;08:59:00;1019,2;;;19,9;87;25;8,9;0,0
16/08/2026;09:04:00;1019,2;;;19,9;87;26;8,7;0,0
16/08/2026;09:09:00;1019,2;;;19,9;87;26;9,0;0,0
16/08/2026;09:14:00;1019,3;;;19,9;87;25;9,6;0,0
16/08/2026;09:19:00;1019,4;;;20,0;87;25;8,6;0,0
16/08/2026;09:24:00;1019,3;;;20,0;87;27;9,4;0,0
16/08/2026;09:29:00;1019,4;;;20,1;88;25;8,3;0,0
16/08/2026;09:34:00;1019,5;;;20,1;88;26;8,4;0,0
16/08/2026;09:39:00;1019,5;;;20,1;87;26;9,2;0,0
16/08/2026;09:44:00;1019,5;;;20,2;87;26;9,2;0,0
16/08/2026;09:49:00;1019,5;;;20,2;87;26;8,8;0,0
16/08/2026;09:54:00;1019,7;;;20,2;87;27;8,4;0,0
16/08/2026;09:59:00;1019,8;;;20,2;87;29;8,3;0,0
16/08/2026;10:04:00;1019,8;;;20,3;87;27;8,4;0,0
16/08/2026;10:09:00;1019,9;;;20,3;87;29;8,5;0,0
16/08/2026;10:14:00;1019,9;;;20,3;88;27;9,0;0,0
16/08/2026;10:19:00;1020,0;;;20,4;87;28;9,0;0,0
16/08/2026;10:24:00;1020,1;;;20,4;87;26;8,0;0,0
16/08/2026;10:29:00;1020,1;;;20,4;87;29;8,4;0,0
16/08/2026;10:34:00;1020,2;;;20,3;87;30;7,5;0,0
16/08/2026;10:39:00;1020,2;;;20,3;86;30;7,4;0,0
16/08/2026;10:44:00;1020,1;;;20,3;86;31;6,9;0,0
16/08/2026;10:49:00;1020,0;;;20,2;86;31;6,9;0,0
16/08/2026;10:54:00;1020,0;;;20,2;87;28;7,1;0,0
16/08/2026;10:59:00;1020,0;;;20,2;87;30;6,6;0,0
16/08/2026;11:04:00;1020,0;;;20,2;87;30;6,4;0,0
16/08/2026;11:09:00;1019,9;;;20,2;87;27;7,4;0,0
16/08/2026;11:14:00;1019,8;;;20,2;87;29;7,4;0,0
16/08/2026;11:19:00;1019,8;;;20,2;87;29;7,4;0,0
16/08/2026;11:24:00;1019,7;;;20,3;87;29;7,0;0,0
16/08/2026;11:29:00;1019,7;;;20,3;87;28;7,2;0,0
16/08/2026;11:34:00;1019,5;;;20,4;87;29;8,7;0,0
16/08/2026;11:39:00;1019,5;;;20,4;87;29;8,3;0,0
16/08/2026;11:44:00;1019,4;;;20,4;87;27;8,4;0,0
16/08/2026;11:49:00;1019,3;;;20,4;87;27;8,6;0,0
16/08/2026;11:54:00;1019,3;;;20,4;87;29;8,9;0,0
16/08/2026;11:59:00;1019,4;;;20,4;87;30;8,4;0,0
16/08/2026;12:04:00;1019,3;;;20,4;87;27;8,5;0,0
16/08/2026;12:09:00;1019,3;;;20,4;87;28;8,6;0,0
16/08/2026;12:14:00;1019,3;;;20,4;87;27;8,8;0,0
16/08/2026;12:19:00;1019,2;;;20,4;87;27;8,7;0,0
16/08/2026;12:24:00;1019,2;;;20,4;87;26;7,8;0,0
16/08/2026;12:29:00;1019,1;;;20,4;87;25;7,8;0,0
16/08/2026;12:34:00;1019,1;;;20,4;87;26;7,5;0,0
16/08/2026;12:39:00;1019,0;;;20,4;87;27;7,7;0,0
16/08/2026;12:44:00;1018,9;;;20,5;87;27;7,9;0,0
16/08/2026;12:49:00;1018,7;;;20,5;87;26;7,8;0,0
16/08/2026;12:54:00;1018,6;;;20,6;88;27;8,4;0,0
16/08/2026;12:59:00;1018,6;;;20,6;88;26;8,5;0,0
16/08/2026;13:04:00;1018,6;;;20,7;87;26;8,2;0,0
16/08/2026;13:09:00;1018,5;;;20,7;87;25;7,6;0,0
16/08/2026;13:14:00;1018,4;;;20,7;87;26;8,7;0,0
16/08/2026;13:19:00;1018,4;;;20,7;87;28;8,7;0,0
16/08/2026;13:24:00;1018,2;;;20,7;87;25;8,9;0,0
16/08/2026;13:29:00;1018,2;;;20,7;87;27;8,4;0,0
16/08/2026;13:34:00;1018,1;;;20,7;87;27;8,6;0,0
16/08/2026;13:39:00;1018,0;;;20,7;87;26;8,5;0,0
16/08/2026;13:44:00;1018,0;;;20,7;87;27;8,0;0,0
16/08/2026;13:49:00;1017,9;;;20,7;87;26;8,3;0,0
16/08/2026;13:54:00;1017,8;;;20,7;87;24;8,0;0,0
16/08/2026;13:59:00;1017,7;;;20,7;87;28;7,9;0,0
16/08/2026;14:04:00;1017,7;;;20,7;87;24;8,2;0,0
16/08/2026;14:09:00;1017,6;;;20,7;87;26;8,2;0,0
16/08/2026;14:14:00;1017,5;;;20,7;87;27;8,5;0,0
16/08/2026;14:19:00;1017,4;;;20,7;87;27;8,7;0,0
16/08/2026;14:24:00;1017,3;;;20,7;87;28;9,1;0,0
16/08/2026;14:29:00;1017,3;;;20,7;87;26;8,8;0,0
16/08/2026;14:34:00;1017,3;;;20,7;87;28;9,3;0,0
16/08/2026;14:39:00;1017,3;;;20,7;87;28;8,8;0,0
16/08/2026;14:44:00;1017,3;;;20,7;87;26;9,1;0,0
16/08/2026;14:49:00;1017,2;;;20,7;87;27;8,4;0,0
16/08/2026;14:54:00;1017,1;;;20,7;87;27;9,2;0,0
16/08/2026;14:59:00;1016,9;;;20,7;87;28;9,3;0,0
16/08/2026;15:04:00;1016,8;;;20,7;87;27;9,7;0,0
16/08/2026;15:09:00;1016,6;;;20,7;87;27;9,4;0,0
16/08/2026;15:14:00;1016,5;;;20,7;87;27;10,1;0,0
16/08/2026;15:19:00;1016,4;;;20,7;86;27;10,7;0,0
16/08/2026;15:24:00;1016,5;;;20,7;86;26;9,9;0,0
16/08/2026;15:29:00;1016,5;;;20,7;86;26;10,0;0,0
16/08/2026;15:34:00;1016,4;;;20,7;86;26;10,0;0,0
16/08/2026;15:39:00;1016,5;;;20,7;86;27;9,9;0,0
16/08/2026;15:44:00;1016,6;;;20,7;86;26;9,8;0,0
16/08/2026;15:49:00;1016,6;;;20,7;87;29;8,8;0,0
16/08/2026;15:54:00;1016,6;;;20,7;87;30;8,7;0,0
16/08/2026;15:59:00;1016,7;;;20,7;86;28;8,8;0,0
16/08/2026;16:04:00;1016,7;;;20,7;86;26;10,3;0,0
16/08/2026;16:09:00;1016,7;;;20,7;86;28;9,5;0,0
16/08/2026;16:14:00;1016,6;;;20,8;86;27;9,5;0,0
16/08/2026;16:19:00;1016,6;;;20,8;86;25;9,4;0,0
16/08/2026;16:24:00;1016,6;;;20,8;87;25;8,9;0,0
16/08/2026;16:29:00;1016,6;;;20,8;86;24;9,1;0,0
16/08/2026;16:34:00;1016,5;;;20,8;86;26;9,4;0,0
16/08/2026;16:39:00;1016,5;;;20,8;86;27;9,2;0,0
16/08/2026;16:44:00;1016,6;;;20,8;86;26;8,9;0,0
16/08/2026;16:49:00;1016,7;;;20,8;86;26;9,1;0,0
16/08/2026;16:54:00;1016,7;;;20,7;86;25;9,0;0,0
16/08/2026;16:59:00;1016,7;;;20,7;86;27;9,0;0,0
16/08/2026;17:04:00;1016,7;;;20,7;86;27;9,4;0,0
16/08/2026;17:09:00;1016,7;;;20,7;86;26;10,1;0,0
16/08/2026;17:14:00;1016,9;;;20,7;86;26;9,4;0,0
16/08/2026;17:19:00;1016,9;;;20,7;86;26;9,5;0,0
16/08/2026;17:24:00;1016,8;;;20,7;86;26;10,1;0,0
16/08/2026;17:29:00;1016,8;;;20,7;86;26;9,8;0,0
16/08/2026;17:34:00;1016,8;;;20,7;86;24;9,7;0,0
16/08/2026;17:39:00;1016,7;;;20,7;86;24;9,3;0,0
16/08/2026;17:44:00;1016,8;;;20,7;86;26;9,5;0,0
16/08/2026;17:49:00;1016,7;;;20,6;86;25;9,6;0,0
16/08/2026;17:54:00;1016,6;;;20,6;86;25;9,1;0,0
16/08/2026;17:59:00;1016,6;;;20,6;86;25;9,6;0,0
16/08/2026;18:04:00;1016,6;;;20,5;86;25;9,8;0,0
16/08/2026;18:09:00;1016,6;;;20,5;86;25;9,1;0,0
16/08/2026;18:14:00;1016,5;;;20,5;86;25;8,9;0,0
16/08/2026;18:19:00;1016,6;;;20,5;86;25;8,8;0,0
16/08/2026;18:24:00;1016,6;;;20,4;86;23;9,1;0,0
16/08/2026;18:29:00;1016,6;;;20,4;86;24;9,0;0,0
16/08/2026;18:34:00;1016,6;;;20,4;86;24;8,5;0,0
16/08/2026;18:39:00;1016,6;;;20,4;86;24;8,2;0,0
16/08/2026;18:44:00;1016,6;;;20,4;86;26;8,3;0,0
16/08/2026;18:49:00;1016,6;;;20,4;86;25;8,9;0,0
16/08/2026;18:54:00;1016,7;;;20,4;86;27;8,8;0,0
16/08/2026;18:59:00;1016,8;;;20,4;86;26;8,6;0,0
16/08/2026;19:04:00;1016,7;;;20,4;86;27;9,2;0,0
16/08/2026;19:09:00;1016,7;;;20,4;86;26;9,4;0,0
16/08/2026;19:14:00;1016,7;;;20,5;86;25;9,8;0,0
16/08/2026;19:19:00;1016,8;;;20,5;86;26;10,0;0,0
16/08/2026;19:24:00;1016,8;;;20,5;86;26;9,9;0,0
16/08/2026;19:29:00;1016,7;;;20,5;86;26;10,1;0,0
16/08/2026;19:34:00;1016,7;;;20,5;86;27;10,0;0,0
16/08/2026;19:39:00;1016,7;;;20,4;86;26;10,3;0,0
16/08/2026;19:44:00;1016,8;;;20,4;86;25;9,1;0,0
16/08/2026;19:49:00;1016,7;;;20,4;86;26;9,7;0,0
16/08/2026;19:54:00;1016,7;;;20,4;86;24;8,8;0,0
16/08/2026;19:59:00;1016,7;;;20,4;86;25;8,6;0,0
16/08/2026;20:04:00;1016,7;;;20,5;86;23;8,7;0,0
16/08/2026;20:09:00;1016,7;;;20,5;86;25;9,1;0,0
16/08/2026;20:14:00;1016,7;;;20,5;86;24;8,4;0,0
16/08/2026;20:19:00;1016,8;;;20,5;86;25;8,2;0,0
16/08/2026;20:24:00;1016,8;;;20,5;86;24;7,9;0,0
16/08/2026;20:29:00;1016,8;;;20,5;86;23;7,7;0,0
16/08/2026;20:34:00;1016,9;;;20,5;86;23;7,8;0,0
16/08/2026;20:39:00;1016,9;;;20,5;86;25;7,4;0,0
16/08/2026;20:44:00;1017,0;;;20,5;86;24;7,1;0,0
16/08/2026;20:49:00;1017,1;;;20,5;86;25;6,7;0,0
16/08/2026;20:54:00;1017,1;;;20,5;86;25;6,7;0,0
16/08/2026;20:59:00;1017,1;;;20,5;86;26;7,2;0,0
16/08/2026;21:04:00;1017,2;;;20,5;86;24;7,6;0,0
16/08/2026;21:09:00;1017,1;;;20,5;86;24;7,5;0,0
16/08/2026;21:14:00;1017,1;;;20,5;86;24;7,1;0,0
16/08/2026;21:19:00;1017,1;;;20,5;86;23;7,5;0,0
16/08/2026;21:24:00;1017,1;;;20,5;86;25;7,9;0,0
16/08/2026;21:29:00;1017,0;;;20,5;86;25;7,4;0,0
16/08/2026;21:34:00;1016,9;;;20,5;86;24;7,3;0,0
16/08/2026;21:39:00;1016,9;;;20,4;86;24;7,4;0,0
16/08/2026;21:44:00;1016,8;;;20,4;86;26;8,5;0,0
16/08/2026;21:49:00;1016,8;;;20,4;86;25;7,9;0,0
16/08/2026;21:54:00;1016,9;;;20,4;86;23;7,4;0,0
16/08/2026;21:59:00;1016,9;;;20,4;86;22;7,6;0,0
16/08/2026;22:04:00;1016,8;;;20,4;86;22;7,2;0,0
16/08/2026;22:09:00;1016,8;;;20,4;86;23;8,5;0,0
16/08/2026;22:14:00;1016,9;;;20,4;86;22;7,8;0,0
16/08/2026;22:19:00;1017,0;;;20,4;86;23;7,5;0,0
16/08/2026;22:24:00;1016,9;;;20,4;86;24;8,1;0,0
16/08/2026;22:29:00;1016,9;;;20,4;86;26;8,4;0,0
16/08/2026;22:34:00;1017,0;;;20,5;86;26;8,1;0,0
16/08/2026;22:39:00;1017,0;;;20,5;86;26;8,3;0,0
16/08/2026;22:44:00;1016,9;;;20,5;86;27;8,1;0,0
16/08/2026;22:49:00;1017,0;;;20,4;86;24;7,7;0,0
16/08/2026;22:54:00;1016,9;;;20,4;86;24;8,3;0,0
16/08/2026;22:59:00;1016,9;;;20,4;86;25;8,0;0,0
16/08/2026;23:04:00;1016,9;;;20,4;86;25;7,7;0,0
16/08/2026;23:09:00;1016,9;;;20,4;86;25;7,9;0,0
16/08/2026;23:14:00;1016,9;;;20,4;86;24;8,0;0,0
16/08/2026;23:19:00;1016,9;;;20,4;86;26;8,2;0,0
16/08/2026;23:24:00;1016,9;;;20,4;86;27;8,1;0,0
16/08/2026;23:29:00;1016,8;;;20,4;86;25;8,4;0,0
16/08/2026;23:34:00;1016,8;;;20,4;86;26;8,3;0,0
16/08/2026;23:39:00;1016,8;;;20,4;86;25;7,8;0,0
16/08/2026;23:44:00;1016,9;;;20,4;86;24;7,3;0,0
16/08/2026;23:49:00;1016,9;;;20,4;86;24;7,2;0,0
16/08/2026;23:54:00;1016,9;;;20,4;86;23;7,0;0,0
16/08/2026;23:59:00;1016,8;;;20,4;86;23;7,0;0,0
